Regional Weather Roundup
Issued by NWS Sterling, VA

Home | Current Version | Previous Version | Graphics & Text | Print | Product List | Glossary On
Versions: 1 2 3 4 5 6 7 8 9 10 11 12 13 14 15 16 17 18 19 20 21 22 23 24 25 26 27 28 29 30 31 32 33 34 35 36 37 38 39 40 41 42 43 44 45 46 47 48 49 50
227
ASUS41 KLWX 020011
RWRLWX

REGIONAL WEATHER ROUNDUP
NATIONAL WEATHER SERVICE BALTIMORE MD/WASHINGTON DC
700 PM EST THU DEC 01 2016

Note: "FAIR" indicates few or no clouds below 12,000 feet
with no significant weather and/or obstructions to visibility.
 TC=TEMPERATURE CELSIUS

 * =Non NWS site. Station does not report precipitation (e.g. rain,
    snow, etc.), thunder, or fog.

DCZ001-MDZ009-015-VAZ040>042-051-053>054-020100-
WASHINGTON METRO

CITY           SKY/WX    TMP DP  RH WIND       PRES   REMARKS
WASHINGTON NAT PTCLDY    49  30  48 NW13G22   29.90R
DULLES         MOCLDY    46  29  51 CALM      29.92R
ANDREWS AFB    CLEAR     47  28  47 NW8       29.89R
FT BELVOIR     CLEAR     48  28  46 NW14      29.90R
QUANTICO       CLEAR     48  29  47 N8        29.92R
COLLEGE PARK*  CLEAR     46  30  53 NW7G21    29.89S
LEESBURG*      CLOUDY    46  34  61 NW9G18    29.93R
MANASSAS*      CLEAR     45  30  57 N6        29.91R
GAITHERSBURG*  CLOUDY    45  28  53 NW10      29.95R

$$

MDZ006>007-011-014-020100-
BALTIMORE METRO

CITY           SKY/WX    TMP DP  RH WIND       PRES   REMARKS
BWI AIRPORT    MOCLDY    47  32  56 W12       29.89R
MD SCIENCE CTR   N/A     50  30  46 MISG      29.90R
MARTIN STATE   CLOUDY    48  36  61 NW7       29.90R
ANNAPOLIS      CLEAR     50  31  48 VRB7      29.89R
FORT MEADE*    CLEAR     45  32  61 NW13G18   29.92R

$$

MDZ012-015-019>023-020100-
MARYLAND EASTERN SHORE

CITY           SKY/WX    TMP DP  RH WIND       PRES   REMARKS
OCEAN CITY     PTCLDY    47  36  65 NW8       29.87R
SALISBURY      PTCLDY    49  35  58 N12       29.88R
BAY BRIDGE AP* CLEAR     48  32  53 NW10      29.89R
EASTON*        PTCLDY    48  30  49 NW13      29.92R

$$

MDZ017>025-020100-
SOUTHERN MARYLAND

CITY           SKY/WX    TMP DP  RH WIND       PRES   REMARKS
PATUXENT RIVER PTCLDY    50  33  52 NW15      29.88R
ST INIGOES     CLEAR     52  34  50 NW3       29.88R
LEONARDTOWN*   CLEAR     50  32  50 N5        29.90R

$$

MDZ003>005-020100-
NORTH CENTRAL MARYLAND

CITY           SKY/WX    TMP DP  RH WIND       PRES   REMARKS
FREDERICK*     MOCLDY    45  32  61 NW9       29.95R
HAGERSTOWN APT CLOUDY    43  29  57 W12       29.91R
WESTMINSTER*   CLOUDY    43  28  56 W13       29.89R

$$

MDZ501>502-020100-
WESTERN MARYLAND

CITY           SKY/WX    TMP DP  RH WIND       PRES   REMARKS
OAKLAND*       CLOUDY    30  28  93 W12G21    29.85S WCI  21
CUMBERLAND*    NOT AVBL

$$

VAZ025>031-020100-
SHENANDOAH VALLEY

CITY           SKY/WX    TMP DP  RH WIND       PRES   REMARKS
WINCHESTER*    CLOUDY    43  30  61 NW10      29.92R
FRONT ROYAL*   CLOUDY    43  32  65 NW5       29.91R
LURAY*         CLOUDY    45  32  61 W8        29.92R
NEW MARKET*    FAIR      43  27  53 W7G16     29.92R
STAUNTON*      PTCLDY    38  29  68 NW5       29.94R
WAYNESBORO*    FAIR      40  27  59 W5        29.92R

$$

WVZ021-048>050-054>055-020100-
EASTERN WEST VIRGINIA PANHANDLE

CITY           SKY/WX    TMP DP  RH WIND       PRES   REMARKS
MARTINSBURG    CLOUDY    44  27  51 NW7G24    29.92R
PETERSBURG*    CLOUDY    44  29  56 S3        29.95R

$$

VAZ036>039-050-020100-
CENTRAL FOOTHILLS

CITY           SKY/WX    TMP DP  RH WIND       PRES   REMARKS
CHARLOTTESVILL CLEAR     48  29  47 VRB3      29.92R
CULPEPER*      CLEAR     46  31  57 CALM      29.92R
ORANGE*          N/A     46  32  57 CALM      29.92R
GORDONSVILLE*  FAIR      48  31  52 W3        29.91R
WARRENTON*     FAIR      46  27  46 NW6       29.90R

$$

VAZ055>057-020100-
NORTH AND CENTRAL PIEDMONT

CITY           SKY/WX    TMP DP  RH WIND       PRES   REMARKS
FREDERICKSBRG* CLEAR     49  34  58 N5        29.90R
STAFFORD*      CLEAR     46  32  58 N6        29.95R

$$

NCZ024-NYZ072-PAZ021-071-VAZ022-071-020100-
OTHER REGIONAL OBSERVATIONS

CITY           SKY/WX    TMP DP  RH WIND       PRES   REMARKS
NEW YORK CITY  CLOUDY    48  28  46 W8G26     29.80R
PHILADELPHIA   CLOUDY    49  30  48 W17       29.86R
PITTSBURGH     CLOUDY    39  27  62 SW13      29.91R
ROANOKE        PTCLDY    42  29  59 W5        29.97R
RICHMOND       CLEAR     52  33  48 NW8       29.88R
RALEIGH        PTCLDY    52  34  50 CALM      29.91R

$$

ANZ530>537-020100-
MARINE OBSERVATIONS

STATION/POSITION TIME  TEMP    WIND        PRES
                       AIR SEA DIR/SP/G
                 (UTC) (F)     (DEG/KT/KT) (MB)
THOMAS PT LIGHT  0000   49 51  310/ 12/ 15   N/A
BALT KEY BRIDGE  2348   49     280/ 18/ 21 1011.8R
COVE POINT       2348   51     350/ 19/ 21 1012.6R
LEWISETTA        2348   51 54  330/  6/  9 1011.4R
SOLOMONS ISLAND  2348          330/  8/ 14   N/A
PINEY POINT      2348          360/ 10/ 11   N/A

$$





USA.gov is the U.S. government's official web portal to all federal, state and local government web resources and services.